User: anonymous   Login
Location: Asheville, NC
(35.6000°N, 82.5500°W)
Time: 14:21:01
(UTC-05:00)
Language:

AO-73 - Orbit

View from above orbital plane
View from above orbital plane
View from above satellite
View from above satellite

Ground track
Ground track

The orbit data is extracted from the following two-line orbital elements,

1 39444U 13066AE  18018.52251777  .00000247  00000-0  37204-4 0  9997
2 39444 097.6061 056.3522 0056882 281.4968 077.9862 14.81624046222905
Epoch (UTC): 18 January 2018 12:32:25
Eccentricity: 0.0056882
inclination: 97.6061°
perigee height: 584 km
apogee height: 664 km
right ascension of ascending node: 56.3522°
argument of perigee: 281.4968°
revolutions per day: 14.81624046
mean anomaly at epoch: 77.9862°
orbit number at epoch: 22290

The dashed part of the orbit path shows where the satellite is in the earth's shadow,  

DLR